Regional Weather Roundup
Issued by NWS Wakefield, VA

Home | Current Version | Previous Version | Text Only | Print | Product List | Glossary Off
Versions: 1 2 3 4 5 6 7 8 9 10 11 12 13 14 15 16 17 18 19 20 21 22 23 24 25 26 27 28 29 30 31 32 33 34 35 36 37 38 39 40 41 42 43 44 45 46 47 48 49 50

528
ASUS41 KAKQ 171015
RWRAKQ

REGIONAL WEATHER ROUNDUP
NATIONAL WEATHER SERVICE WAKEFIELD VA
500 AM EST FRI NOV 17 2017

Note: "fair" indicates few or no clouds below 12,000 feet with no
significant weather and/or obstructions to visibility. * = Denotes
station may not report precipitation (e.g., rain,snow,etc.),
thunder or fog.

VAZ042-051-052>054-056-171100-
NORTHERN VIRGINIA

CITY           SKY/WX    TMP DP  RH WIND       PRES   REMARKS
WASH NATIONAL  PTCLDY    44  29  55 W9        30.17R
DULLES         PTCLDY    40  29  64 W6        30.17R
FORT BELVOIR   CLEAR     41  28  61 NW7       30.16R
QUANTICO       CLEAR     40  30  67 NW9       30.18
FREDERICKSBRG* PTCLDY    35  31  85 NW8       30.16R
STAFFORD*      PTCLDY    37  30  75 N9        30.21R
WARRENTON      NOT AVBL
CULPEPER*      CLEAR     31  26  84 W3        30.18R
MANASSAS*      CLEAR     37  28  70 NW7       30.18R
LEESBURG*      MOCLDY    41  32  70 NW15      30.16S
WINCHESTER     PTCLDY    37  28  70 W10       30.16R
FRONT ROYAL*   SUNNY     37  28  70 CALM      30.16R
LURAY*         MOSUNNY   37  30  75 W5        30.18R
$$

VAZ048-049-060>072-079>083-171100-
CENTRAL AND SOUTH CENTRAL VIRGINIA

CITY           SKY/WX    TMP DP  RH WIND       PRES   REMARKS
RICHMOND       PTCLDY    38  30  73 NW3       30.17R
CHESTERFIELD*  NOT AVBL
PETERSBURG*    CLEAR    N/A N/A N/A CALM      30.18S
HANOVER        PTCLDY    34  29  82 CALM      30.18R
TAPPAHANNOCK*    N/A    N/A N/A N/A MISG        N/A
QUINTON*       FAIR      35  30  82 CALM      30.16R
CHARLOTTSVILLE CLEAR     40  27  59 CALM      30.16R
GORDONSVILLE*  MOSUNNY   33  30  88 W5        30.16R
ORANGE*        PTCLDY    30  28  93 CALM      30.16R
LOUISA*        PTCLDY    28  27  94 W5        30.20R
BUMPASS*       FAIR      31  29  94 S5        30.17R
FARMVILLE*     PTCLDY    37  32  81 W6        30.18R
CREWE*         FAIR      31  31 100 CALM      30.18R
FORT PICKETT*  NOT AVBL
CHASE CITY*    FAIR      31  31 100 CALM      30.20S
CLARKSVILLE*   FAIR      36  30  80 CALM      30.20R
SOUTH HILL*    CLEAR     33  31  92 CALM      30.24S
LAWRENCEVILLE* FAIR      35  30  82 CALM      30.19R
EMPORIA*       CLEAR     32  30  93 W3        30.20S
$$

VAZ088>098-171100-
SOUTHEAST VIRGINIA

CITY           SKY/WX    TMP DP  RH WIND       PRES   REMARKS
NORFOLK        CLEAR     46  32  58 N12G21    30.15R
VIRGINIA BEACH CLEAR     44  30  57 N17G24    30.13R
NORFOLK NAVAL  CLEAR     45  30  55 N17G23    30.17R
WEST POINT*    PTCLDY    35  31  85 NW3       30.18R
SALUDA*        FAIR      43  33  67 NW7G16    30.14S
NEWPORT NEWS   CLEAR     42  30  62 NW6       30.15R
LANGLEY AFB    CLEAR     43  30  60 N14       30.15R
FORT EUSTIS    CLEAR     43  32  63 NW8       30.13R
WILLIAMSBURG*  CLEAR     39  32  75 CALM      30.17R
HR EXEC AP*    NOT AVBL
FRANKLIN*      CLEAR     33  31  93 CALM      30.18R
US460-WAKEFLD  PTCLDY    32  30  92 CALM      30.17R
$$

VAZ020-022-025-037-045-171100-
WEST CENTRAL AND SOUTHWEST VIRGINIA

CITY           SKY/WX    TMP DP  RH WIND       PRES   REMARKS
STAUNTON*      CLEAR     27  24  89 CALM      30.20S
WAYNESBORO*    SUNNY     32  26  79 W7        30.17S
HOT SPRINGS VA CLOUDY    27  26  96 W22       30.10S WCI  13
LYNCHBURG      PTCLDY    34  27  75 SW5       30.19R
DANVILLE       CLEAR     38  29  70 N9        30.20R
SOUTH BOSTON*  FAIR      37  28  69 NW6       30.21R
MARTINSVILLE   PTCLDY    35  28  78 N6        30.23R
ROANOKE        CLEAR     34  26  72 NW5       30.23R
BLACKSBURG     CLEAR     32  27  81 NW9       30.22R
DUBLIN*        CLEAR     32  28  86 NW3       30.22R
MARION*        CLEAR     32  29  90 W5        30.21S
HILLSVILLE*    CLOUDY    31  28  89 N5        30.15S
RICHLANDS*     FAIR      32  29  90 CALM      30.20F
WISE*          CLOUDY    32  32 100 CALM      30.18F
ABINGDON*      CLEAR     31  30  97 CALM      30.20S
$$

MDZ021>025-VAZ099-100-171100-
SOUTHERN MARYLAND AND THE DELMARVA PENINSULA

CITY           SKY/WX    TMP DP  RH WIND       PRES   REMARKS
PATUXENT RIVER CLEAR     37  31  78 W9        30.14
BAY BRIDGE APT CLEAR     45  32  61 W9G20     30.13R
LEONARDTOWN    PTCLDY    39  30  70 W6        30.15R
DOVER          MOCLDY    43  41  93 W7        30.10R
GEORGETOWN     CLEAR     43  31  62 NW8       30.11R
EASTON         NOT AVBL
CAMBRIDGE        N/A    N/A N/A N/A MISG        N/A
SALISBURY      CLEAR     41  32  70 W7        30.11R
OCEAN CITY     CLEAR     41  32  70 NW8       30.11R
WALLOPS ISLAND CLEAR     41  33  73 NW9       30.12R
ACCOMACK*      CLEAR     45  32  60 NW13G20   30.13R
$$

NCZ012>017-030>032-171100-
NORTH CENTRAL AND EASTERN NORTH CAROLINA

CITY           SKY/WX    TMP DP  RH WIND       PRES   REMARKS
ROANOKE RAPIDS FAIR      36  32  87 CALM      30.19R
RALEIGH        PTCLDY    40  30  67 N6        30.19R
ELIZABETH CITY CLEAR     44  35  70 N12       30.15R
AHOSKIE*       CLEAR     35  32  87 CALM      30.18R
EDENTON*       CLEAR     39  34  82 CALM      30.17R
CURRITUCK*     CLEAR     42  35  77 NW3       30.15R
KILL DEVIL HLS MOCLDY    47  37  70 CALM      30.12R
MANTEO         CLEAR     47  38  73 N13G20    30.14R
CAPE HATTERAS  CLEAR     52  44  74 VRB7      30.11R
TARBORO*       NOT AVBL
GOLDSBORO      CLEAR     42  32  68 NE7       30.17R
WASHINGTON     CLEAR     38  34  83 N3        30.17R
GREENVILLE     CLEAR     36  32  87 CALM      30.19R
NEW BERN       CLEAR     40  37  89 N6        30.18R
WILMINGTON     CLEAR     44  36  73 N7        30.15R
$$

VAZ048-171100-
ELSEWHERE

CITY           SKY/WX    TMP DP  RH WIND       PRES   REMARKS
HARRISBURG PA  MOCLDY    41  27  57 NW15G23   30.11R
BALTIMORE      PTCLDY    37  30  75 W8        30.13R
ANNAPOLIS      CLEAR     44  31  60 W8        30.13
ANDREWS AFB    CLEAR     41  28  59 W9        30.14R
PHILADELPHIA   MOCLDY    45  27  49 NW13      30.08R
HENDERSON NC   CLEAR     37  28  69 N6        30.19R
GREENSBORO     CLEAR     39  31  72 NE6       30.18R
ROCKY MOUNT    CLEAR     37  32  82 N6        30.19R
$$

VAZ100-171100-
MARINE

STATION/POSITION TIME  TEMP    WIND        PRES    WAVE   SWELL
                       AIR SEA DIR/SP/G            HT/PER HT/PER
                 (UTC) (F)     (DEG/KT/KT) (MB)    (FT/S) (FT/S)
BRANDYWINE LGT   0942   47     300/ 25/ 30 1018.8R
CAPE MAY NJ      0948   46 51  310/ 16/ 25 1017.9R
LEWES DE         0942   45 52  310/ 19/ 23 1018.7R
15NM E FENWICK I 0950   48 59  300/ 25/ 31 1018.0R   5/ 5   2/11
OCEAN-CITY-INLET 0942   44 53  320/  9/ 11 1019.5R
WACHAPREAGUE VA  0942   44 51  300/  4/ 10 1019.9R
THOMAS POINT MD  1000   44 53  280/ 14/ 16   N/A
GOOSES REEF MD   1000   46 54  320/ 17/ 21 1015.3    2/ 2
COVE POINT MD    0942   44     330/ 11/ 17 1021.1R
SOLOMONS ISLAND  0942   44 55  300/  6/ 12 1020.2R
BISHOPS HEAD MD  0942   45 48  310/ 15/ 17 1020.6R
PINEY POINT MD   0942          340/ 24/ 28   N/A
POTOMAC MD       1000   47 56  340/ 21/ 27 1019.4    2/ 3
CAMBRIDGE MD     0942   45 51              1020.9R
LEWISETTA VA     0942   46 51  340/ 15/ 24 1020.4R
RAPPAHANNOCK LGT 0942          310/ 20/ 23 1020.6R
STINGRAY PT      1000   45 55  350/ 16/ 19 1020.7    2/ 3
YORK RVR RNG VA  0942   46     350/ 23/ 26 1020.8R
YORKTOWN VA      0942   45 56  330/ 12/ 15 1020.5R
JAMESTOWN VA     1000      54  330/ 10/ 14   N/A     0
DOMINION TERM VA 0942   45     360/  4/ 11 1021.1R
KIPTOPEKE VA     0942      54  350/ 18/ 25   N/A
CAPE HENRY VA    0942   47     330/ 23/ 26   N/A
WILLOUBY STN VA  0942   45     360/ 13/ 15 1020.8R
S CRANEY ISL VA  0942   45     350/ 12/ 17 1020.8R
CAPE HENRY BUOY  1000      60                N/A     5/ 6   2/12
1ST LANDING BUOY 1000   47 56  360/ 21/ 27 1020.5    3/ 3
CAPE CHARLES BUO 0951      58                N/A     4/ 4   2/12
64NM E OF VA BCH 0950   51 61  330/ 21/ 25 1018.8R   9/ 7   3/11
DUCK PIER NC     0942   48 58  340/ 21/ 26 1019.3R
44100 DUCK FRF   0945      62                N/A     7/ 7   2/13
44056 DUCK FRF   1000      60                N/A     6/ 6   2/13
OREGON INLET NC  0942   49 58  330/  9/ 14 1019.7R
HATTERAS NC      0942   52 60  350/ 19/ 22 1019.3R
DIAMOND SHLS NC  0950   56 65  360/ 21/ 27 1019.0R   6/ 5   3/11
CAPE LOOKOUT NC  1000   50      10/ 15/ 20 1020.2R
$$




USA.gov is the U.S. government's official web portal to all federal, state and local government web resources and services.